User: anonymous   Login
Location: Caltech
(34.1382°N, 118.1253°W)
Time: 14:21:17
(UTC-07:00)
Language:

Uribyol 2 - Orbit

View from above orbital plane
View from above orbital plane
View from above satellite
View from above satellite

Ground track
Ground track

The orbit data is extracted from the following two-line orbital elements,

1 22828U 93061F   16181.86613618 -.00000008 +00000-0 +14258-4 0  9990
2 22828 098.7453 137.2674 0008847 238.1325 121.8996 14.30594854155337
Epoch (UTC): 29 June 2016 20:47:14
Eccentricity: 0.0008847
inclination: 98.7453°
perigee height: 783 km
apogee height: 796 km
right ascension of ascending node: 137.2674°
argument of perigee: 238.1325°
revolutions per day: 14.30594854
mean anomaly at epoch: 121.8996°
orbit number at epoch: 15533

The dashed part of the orbit path shows where the satellite is in the earth's shadow,  

DLR